This is the latest recevied weather packets stored in our database for station/object SV2LPQ-2. If no packets are shown the sender has not sent any weather packets the latest 10 day(s).
| Time | Temp. | Humidity | Pressure | Rain* | Wind** | Luminosity | Snow |
|---|---|---|---|---|---|---|---|
| 1777102921 | 17.22° C | 62% | 1042.5 hPa | 0 mm | - | - | - |
| 1777102421 | 17.22° C | 60% | 1042.5 hPa | 0 mm | - | - | - |
| 1777101920 | 17.22° C | 63% | 1042.5 hPa | 0 mm | - | - | - |
| 1777101421 | 16.67° C | 62% | 1042.5 hPa | 0 mm | - | - | - |
| 1777100921 | 16.11° C | 64% | 1042.5 hPa | 0 mm | - | - | - |
| 1777100420 | 16.11° C | 62% | 1042.5 hPa | 0 mm | - | - | - |
| 1777099920 | 16.11° C | 63% | 1042.5 hPa | 0 mm | - | - | - |
| 1777099421 | 15.56° C | 66% | 1042.5 hPa | 0 mm | - | - | - |
| 1777098920 | 15.56° C | 65% | 1042.5 hPa | 0 mm | - | - | - |
| 1777098420 | 15° C | 68% | 1042.5 hPa | 0 mm | - | - | - |
| 1777097921 | 14.44° C | 71% | 1042.5 hPa | 0 mm | - | - | - |
| 1777097421 | 14.44° C | 72% | 1042.5 hPa | 0 mm | - | - | - |
| 1777096920 | 13.89° C | 73% | 1042.5 hPa | 0 mm | - | - | - |
| 1777096421 | 13.33° C | 76% | 1042.5 hPa | 0 mm | - | - | - |
| 1777095920 | 12.78° C | 77% | 1042.5 hPa | 0 mm | - | - | - |
| 1777095420 | 12.78° C | 79% | 1042.5 hPa | 0 mm | - | - | - |
| 1777094920 | 12.22° C | 81% | 1042.5 hPa | 0 mm | - | - | - |
| 1777094421 | 12.22° C | 82% | 1042.5 hPa | 0 mm | - | - | - |
| 1777093920 | 11.67° C | 83% | 1042.5 hPa | 0 mm | - | - | - |
| 1777093421 | 11.67° C | 83% | 1042.5 hPa | 0 mm | - | - | - |
| 1777092921 | 11.11° C | 84% | 1042.5 hPa | 0 mm | - | - | - |
| 1777092420 | 10.56° C | 84% | 1042.5 hPa | 0 mm | - | - | - |
| 1777091921 | 10° C | 85% | 1042.5 hPa | 0 mm | - | - | - |
| 1777091421 | 9.44° C | 87% | 1042.5 hPa | 0 mm | - | - | - |
| 1777090920 | 8.33° C | 88% | 1042.5 hPa | 0 mm | - | - | - |
* Rain latest hour (hover to see other rain measurements)
** Current wind speed in m/s (hover to see current wind gust speed)